Volver al catálogo

KUIPER-00119

ActivoComunicacionesLEO
NORAD 65155·PAYLOAD·🇺🇸 United States

Lanzado Aug 11, 2025 desde Cape Canaveral Space Force Station

Loading…

Próximos Pases (próximas 24 horas)

TLE

ActualizadoSource: CelesTrak SupGP

Época: Sep 14, 2026, 19:33 UTC

1 65155C 25171Z   26257.81523148  .00005881  00000+0  77001-3 0  2578
2 65155  51.9010  46.8679 0000644 114.5314  23.6278 14.79917142    17

Sigue KUIPER-00119 en tiempo real con AllMySat

Download on the App Store